Tracking 30995 objects as of 5-Jul-2025
HD Live streaming from Space Station
objects crossing your sky now

COSMOS 1375 DEB

Track COSMOS 1375 DEB now!
10-day predictions


NORAD ID: 17794
Int'l Code: 1982-055AL
Perigee: 873.8 km
Apogee: 924.9 km
Inclination: 65.8 °
Period: 102.8 minutes
Semi major axis: 7270 km
RCS: 0.0068 m2 (small)
Launch date: June 6, 1982
Source: Commonwealth of Independent States (former USSR) (CIS)
Launch site: PLESETSK MISSILE AND SPACE COMPLEX (PKMTR)

Note: This is SATELLITE DEBRIS
Your satellite tracking list
SITRO-AIS-34
Track 1 satellite(s)




NASA's NSSDC Master Catalog

Two Line Element Set (TLE):
1 17794U 82055AL  25185.80247247  .00001746  00000-0  12271-2 0  9996
2 17794  65.8163  83.0533 0035146 138.7110 221.6633 14.00450529  3579
Source of the keplerian elements: AFSPC